#timestamp,LO_Frequency,Hit 
1498042815.5,286046996.7,N
1498042835.3,286046999.6,N
1498042855.1,286046996.6,N
1498042875.9,286046997.0,N
1498042895.7,286046996.6,N
1498042915.5,286046995.0,N
1498042935.4,286046996.9,N
1498042955.2,286046996.6,N
1498042975.1,286046996.8,N
1498042976.0,286046996.8,N
1498042995.8,286046996.9,N
1498043015.6,286046997.0,N
1498043035.5,286046997.1,N
1498043055.3,286046998.6,N
1498043075.1,286046998.4,N
1498043095.9,286046999.3,N
1498043115.7,286046999.0,N
1498043135.6,286046998.7,N
1498043155.4,286046999.5,N
1498043175.2,286046996.5,N
1498043195.1,286046999.6,N
1498043196.0,286046999.6,N
1498043215.8,286046998.3,N
1498043235.6,286046998.8,N
1498043255.5,286046999.4,N
1498043275.3,286046996.7,N
1498043295.2,286046996.6,N
1498043315.9,286046999.3,N
1498043335.7,286046999.5,N
1498043355.6,286046999.3,N
1498043375.4,286046999.3,N
1498043395.2,286046999.4,N
1498043415.1,286046999.2,N
1498043416.0,286046999.2,N
1498043435.8,286046998.3,N
1498043455.7,286046998.4,N
1498043475.5,286046997.1,N
1498043495.3,286046997.1,N
1498043515.2,286046996.5,N
1498043535.0,286046997.2,N
1498043535.9,286046997.2,N
1498043555.8,286046997.0,N
1498043575.6,286046999.1,N
1498043595.4,286046999.2,N
1498043615.3,286046996.7,N
1498043635.1,286046999.5,N
1498043655.9,286046997.4,N
1498043675.7,286046996.7,N
1498043695.5,286046996.7,N
1498043715.4,286046996.7,N
1498043735.2,286046997.2,N
1498043755.0,286046997.7,N
1498043755.9,286046997.7,N
1498043775.8,286046996.8,N
1498043795.6,286046997.8,N
1498043815.5,286046997.2,N
1498043835.3,286046996.6,N
1498043855.1,286046996.9,N
1498043875.9,286046997.8,N
1498043895.7,286046997.7,N
1498043915.5,286046996.6,N
1498043935.4,286046997.6,N
1498043955.2,286046994.9,N
1498043975.1,286046997.7,N
1498043976.0,286046997.7,N
1498043995.8,286046997.4,N
1498044015.6,286046997.6,N
1498044035.5,286046997.3,N
1498044055.3,286046995.2,N
1498044075.2,286046996.2,N
1498044095.9,286046995.7,N
1498044115.7,286046996.2,N
1498044135.6,286046995.9,N
1498044155.4,286046995.8,N
1498044175.2,286046995.6,N
1498044195.1,286046997.7,N
1498044196.0,286046997.7,N
1498044215.8,286046995.2,N
1498044235.7,286046995.6,N
1498044255.5,286046993.4,N
1498044275.3,286046995.5,N
1498044295.2,286046995.8,N
1498044315.0,286046996.2,N
1498044315.9,286046996.2,N
1498044335.7,286046996.2,N
1498044355.6,286046995.4,N
1498044375.4,286046995.6,N
1498044395.3,286046995.4,N
1498044415.1,286046997.6,N
1498044416.0,286046997.6,N
1498044435.8,286046997.8,N
1498044455.7,286046998.0,N
1498044475.5,286046995.7,N
1498044495.3,286046996.2,N
1498044515.2,286046993.4,N
1498044535.0,286046996.4,N
1498044535.9,286046996.4,N
1498044555.8,286046995.9,N
1498044575.6,286046993.3,N
1498044595.4,286046993.7,N
1498044615.3,286046995.6,N
1498044635.1,286046996.1,N
1498044655.9,286046993.7,N
1498044675.7,286046993.5,N
1498044695.5,286046993.7,N
1498044715.4,286046996.2,N
1498044735.2,286046993.4,N
1498044755.0,286046995.2,N
1498044755.9,286046995.2,N
1498044775.8,286046996.4,N
1498044795.6,286046995.2,N
1498044815.5,286046993.4,N
1498044835.3,286046996.2,N
1498044855.1,286046995.8,N
1498044875.9,286046996.0,N
1498044895.7,286046996.3,N
1498044915.5,286046993.5,N
1498044935.4,286046994.8,N
1498044955.2,286046993.7,N
1498044975.1,286046993.7,N
1498044976.0,286046993.7,N
1498044995.8,286046993.5,N
1498045015.6,286046993.7,N
1498045035.5,286046994.1,N
1498045055.3,286046995.1,N
1498045075.1,286046995.1,N
1498045095.9,286046995.1,N
1498045115.7,286046996.0,N
1498045135.6,286046996.4,N
1498045155.4,286046991.7,N
1498045175.2,286046994.2,N
1498045195.1,286046991.8,N
1498045196.0,286046991.8,N
1498045215.8,286046994.5,N
1498045235.6,286046994.0,N
1498045255.5,286046994.6,N
1498045275.3,286046993.8,N
1498045295.2,286046994.6,N
1498045315.9,286046992.4,N
1498045335.7,286046991.8,N
1498045355.6,286046994.5,N
1498045375.4,286046994.7,N
1498045395.2,286046992.1,N
1498045415.1,286046992.2,N
1498045416.0,286046992.2,N
1498045435.8,286046992.5,N
1498045455.7,286046993.0,N
1498045475.5,286046992.3,N
1498045495.3,286046991.3,N
1498045515.2,286046993.2,N
1498045535.0,286046992.6,N
1498045535.9,286046992.6,N
1498045555.7,286046993.2,N
1498045575.6,286046992.9,N
1498045595.4,286046992.5,N
1498045615.3,286046990.5,N
1498045635.1,286046992.6,N
1498045636.0,286046992.6,N
1498045655.8,286046992.6,N
1498045675.7,286046992.7,N
1498045695.5,286046993.0,N
1498045715.3,286046992.8,N
1498045735.2,286046993.0,N
1498045755.0,286046992.7,N
1498045755.9,286046992.7,N
1498045805.8,286046994.8,Y
1498045815.7,286046995.2,N
1498045835.5,286046996.8,N
1498045855.4,286046999.5,N
1498045875.2,286046996.8,N
1498045895.0,286046997.1,N
1498045895.9,286046997.1,N
1498045915.8,286046996.7,N
1498045935.6,286046996.7,N
1498045955.5,286046998.7,N
1498045975.3,286046997.1,N
1498045995.1,286046997.0,N
1498046015.9,286046996.5,N
1498046035.7,286046997.2,N
1498046055.5,286046998.2,N
1498046075.4,286046996.5,N
1498046095.2,286046997.2,N
1498046115.0,286046997.2,N
1498046116.0,286046997.2,N
1498046135.8,286046996.6,N
1498046155.6,286046996.9,N
1498046175.5,286046996.7,N
1498046195.3,286046996.7,N
1498046215.1,286046996.8,N
1498046235.9,286046999.6,N
1498046255.7,286046999.1,N
1498046275.6,286046998.7,N
1498046295.4,286046999.6,N
1498046315.2,286046995.0,N
1498046335.1,286046997.8,N
1498046336.0,286046997.8,N
1498046355.8,286046995.3,N
1498046375.6,286046995.0,N
1498046395.5,286046995.1,N
